Back to catalog

SL-24 R/B

AlivePO
NORAD 31123·ROCKET BODY·🇷🇺 Russia

Launched Apr 17, 2007 from Baikonur Cosmodrome

Loading…

Next Passes (next 24 hours)

TLE

FreshSource: Space-Track

Epoch: Sep 14, 2026, 11:56 UTC

1 31123U 07012G   26257.49755299  .00000063  00000-0  34656-4 0  9999
2 31123  98.0069  93.2083 0310077 144.9762 247.2049 14.13540106   799

Track SL-24 R/B in real time with AllMySat

Download on the App Store